GFSNIL_sfc_wetblb_159.txt.gz
Wetbulb
44.72 46.10 47.86 49.17 53.49 59.49 60.12 60.15 61.09 60.21 59.38 59.59 59.78 60.23 59.97 59.48 59.12 58.51 57.47 56.90 57.18 56.82
42.07 42.87 44.05 44.84 45.79 46.89 48.70 50.76 57.82 60.92 60.15 59.55 59.90 59.84 59.96 59.28 58.69 58.49 57.95 57.19 56.53 56.59
39.20 40.61 41.39 40.68 40.69 42.09 43.84 45.72 47.60 50.45 54.85 59.84 59.87 59.79 59.48 58.93 59.15 58.38 58.26 57.67 56.96 56.01
36.43 38.02 37.24 36.98 37.69 38.91 39.87 40.84 42.03 44.20 47.14 51.06 55.02 60.11 59.23 59.19 58.97 58.23 57.96 58.09 57.23 56.61
34.16 35.10 33.63 33.10 34.32 36.95 36.46 37.46 38.66 41.09 43.28 45.40 48.11 51.97 55.98 58.65 58.49 58.00 57.64 57.80 57.37 56.82
31.50 31.13 30.17 30.82 31.98 33.98 34.22 34.41 36.24 37.63 39.28 41.09 43.40 45.76 49.06 52.71 55.76 58.47 58.14 57.90 57.59 57.27
29.43 27.43 27.13 28.75 29.68 31.03 31.65 32.13 33.90 35.27 36.25 38.35 39.83 41.89 45.41 46.55 46.79 49.25 54.27 58.30 58.01 57.74
25.09 24.52 24.96 25.76 27.26 28.35 28.80 30.15 31.71 32.79 34.46 36.20 37.98 40.27 40.15 40.32 41.25 42.96 45.39 49.35 55.44 58.01
21.78 22.02 22.60 23.38 24.37 24.90 26.01 27.19 28.26 29.92 32.10 33.79 36.06 36.93 37.47 38.40 38.80 39.38 40.69 42.85 47.52 52.43
19.98 19.66 20.43 21.27 21.53 22.07 22.53 24.27 25.12 27.07 29.85 31.58 33.97 35.69 36.22 36.30 36.97 37.25 38.75 40.81 42.99 45.85
18.04 17.94 19.00 19.47 19.65 20.36 21.78 22.41 23.65 25.74 27.87 29.29 32.41 34.89 36.07 35.96 36.74 36.93 38.22 39.72 41.18 42.55
16.74 16.94 17.64 17.87 18.88 20.34 21.21 23.02 24.44 26.07 26.91 28.46 30.64 33.61 35.46 35.84 36.02 35.51 36.15 37.73 39.39 40.46
16.41 16.35 16.63 17.91 18.74 20.21 22.00 22.84 23.81 24.18 26.34 27.48 29.31 32.04 33.25 33.45 33.41 33.78 33.69 34.94 36.12 36.67
14.83 15.66 17.99 18.03 19.36 20.06 20.67 21.23 21.61 22.46 23.79 25.20 26.28 27.52 30.72 30.54 30.80 31.05 31.89 33.27 33.93 35.33

GFSNIL_sfc_wetblb_162.txt.gz
Wetbulb
45.55 47.15 46.51 46.58 47.16 47.89 48.55 48.39 49.58 50.23 51.98 59.19 62.15 61.67 60.85 60.44 60.40 60.26 59.08 58.43 58.20 57.77
42.11 43.04 42.14 43.07 43.98 44.51 45.12 45.19 45.84 47.29 48.08 50.55 51.79 58.26 60.31 59.86 59.99 60.09 59.52 58.80 58.42 57.85
39.74 40.45 39.65 39.90 39.72 41.03 41.77 41.92 42.26 43.20 44.86 46.69 48.59 51.07 53.13 57.46 59.58 59.39 59.28 59.12 58.67 58.12
37.62 37.21 37.05 37.09 37.41 38.36 39.38 39.14 39.55 40.58 41.65 42.81 43.64 45.75 47.26 49.57 51.65 54.32 57.81 58.24 57.92 57.61
35.30 34.06 33.79 34.18 34.85 35.81 35.96 36.82 37.28 38.23 38.98 40.02 40.96 42.05 42.97 44.31 48.27 49.04 50.09 52.26 56.67 58.14
31.51 30.83 30.81 31.51 32.37 33.35 33.49 34.33 35.09 35.61 35.19 37.00 38.26 39.25 41.82 42.83 41.65 42.42 42.75 44.49 46.58 47.85
28.08 28.13 28.73 29.56 30.03 30.48 31.25 31.64 32.34 33.22 33.92 35.15 37.03 37.99 39.22 38.53 39.13 39.43 40.84 42.28 43.28 43.88
26.52 26.96 27.26 27.32 27.74 28.34 29.06 29.44 30.28 30.99 32.35 33.60 35.09 36.44 35.84 35.82 36.15 36.78 37.51 39.81 40.87 42.75
24.90 24.94 25.19 25.29 25.38 26.12 26.43 27.27 28.18 28.78 30.13 31.12 32.34 33.67 34.92 35.31 34.78 35.77 36.02 36.61 38.56 40.15
23.06 22.92 23.45 23.89 24.33 24.59 25.10 26.28 27.17 28.55 29.55 30.02 31.72 32.77 33.59 33.35 34.07 34.96 35.89 36.37 36.61 37.20
21.41 21.59 22.37 22.86 23.28 23.83 24.66 25.66 26.75 27.28 28.05 28.86 29.78 30.89 31.06 31.50 32.69 33.09 33.75 35.34 35.77 36.03
20.17 20.06 20.88 21.52 22.02 23.21 23.86 24.92 25.29 26.10 26.50 26.47 27.57 28.74 29.10 29.72 29.24 29.27 29.29 29.97 31.36 32.21
18.94 19.09 20.08 20.85 21.24 22.54 23.51 23.42 24.08 23.97 25.53 25.43 25.72 27.02 27.29 27.80 27.47 26.13 26.25 27.90 29.07 29.21
17.23 17.72 20.01 19.95 20.81 21.44 21.67 22.04 22.32 22.85 24.02 24.43 24.37 24.36 25.57 26.85 25.26 24.91 24.65 23.93 24.96 26.73

GFSNIL_sfc_wetblb_165.txt.gz
Wetbulb
44.76 44.11 44.12 44.19 44.52 45.40 45.65 46.00 46.10 46.82 48.46 49.77 51.68 53.40 54.58 58.83 60.30 60.28 59.78 59.36 59.06 58.52
42.53 41.78 41.09 41.72 42.29 42.67 43.15 42.94 43.00 43.91 44.70 46.21 47.36 48.88 49.92 52.51 53.31 55.82 58.33 58.74 59.08 58.51
40.20 39.32 39.21 39.87 39.17 39.50 40.26 40.67 40.69 41.30 42.15 43.15 44.08 45.31 46.14 47.72 49.14 50.22 52.42 52.67 53.94 56.71
37.43 36.44 36.79 36.79 36.80 36.92 37.82 38.00 38.23 38.72 39.53 40.30 41.17 42.03 43.07 44.46 46.05 43.70 44.74 45.82 45.90 46.63
34.68 34.25 33.97 33.98 34.37 35.15 34.76 36.12 36.39 36.90 37.36 38.25 39.09 39.96 40.95 40.95 40.31 40.48 40.76 41.50 42.33 42.69
31.66 31.34 31.38 31.61 32.19 32.67 32.86 33.49 34.12 34.60 35.00 35.80 36.98 38.30 38.23 37.85 37.63 37.79 38.30 39.00 39.28 39.87
29.23 29.35 29.62 30.07 30.14 30.37 30.98 31.03 31.55 32.58 33.45 34.36 35.38 36.11 35.44 35.40 35.68 36.31 37.10 38.53 39.02 39.65
28.14 28.32 28.50 28.10 28.28 29.00 29.32 29.77 30.62 31.16 32.11 32.88 33.76 33.73 33.60 33.88 33.52 33.97 35.20 37.00 37.21 38.37
26.54 26.57 26.61 26.56 26.87 27.52 27.95 28.53 29.63 30.14 30.45 30.91 32.25 31.96 31.97 31.48 30.95 33.43 33.82 33.64 34.36 35.66
24.52 24.61 24.89 25.51 25.92 25.98 26.36 27.79 28.14 28.44 29.04 29.09 30.16 30.72 30.68 29.90 30.20 30.35 31.06 30.86 30.62 30.73
23.07 23.01 23.70 24.43 24.36 24.94 25.75 26.10 26.53 26.82 27.49 27.67 28.56 29.45 28.91 28.74 28.74 28.32 28.62 28.99 28.90 29.07
21.62 21.34 22.01 22.52 22.73 23.79 24.06 24.75 24.85 25.61 25.89 25.87 26.40 27.71 27.68 27.54 26.80 26.13 26.57 27.26 27.66 27.18
20.20 20.10 20.77 21.53 21.79 22.85 23.45 23.37 23.99 24.04 25.55 25.66 24.80 25.88 26.43 26.19 25.36 23.91 23.69 24.72 25.35 26.05
18.15 18.23 20.22 20.07 20.68 21.34 21.47 21.81 22.33 22.65 24.02 24.47 24.46 23.40 25.07 25.05 23.21 22.21 22.18 21.83 22.10 22.74

GFSNIL_sfc_wetblb_168.txt.gz
Wetbulb
40.28 39.48 39.31 39.23 39.48 39.92 40.00 40.14 40.62 41.08 41.96 42.89 44.32 44.57 45.87 48.51 50.01 51.40 52.65 53.53 55.04 57.47
37.60 36.38 36.27 37.30 37.65 37.49 38.06 39.43 38.76 39.25 39.53 40.58 41.67 42.54 42.75 44.09 44.89 46.00 45.67 46.05 45.15 46.07
35.00 34.78 34.97 35.40 34.66 34.90 35.78 36.30 36.77 36.90 37.76 38.58 39.54 40.13 40.83 42.19 41.15 41.18 41.99 42.20 41.75 42.48
32.78 32.95 33.30 32.89 32.83 33.03 33.71 34.30 34.59 35.14 35.91 36.66 37.23 38.34 38.24 37.98 38.07 37.67 38.04 38.91 38.74 39.14
31.14 30.84 30.44 30.36 30.81 31.66 31.26 32.56 32.72 33.54 34.28 34.79 35.48 35.79 35.05 34.61 35.31 35.26 35.38 36.19 36.89 37.11
28.75 28.35 28.23 28.61 29.13 29.71 29.65 30.05 30.86 31.72 31.98 32.58 33.89 32.88 33.28 33.24 32.86 33.03 34.06 35.10 35.78 35.66
26.81 26.91 26.96 27.46 27.62 28.08 28.47 28.44 29.15 30.33 30.97 31.64 32.63 31.72 31.20 30.69 30.11 30.96 32.94 34.62 34.42 33.87
26.15 26.24 26.23 25.77 26.17 26.90 27.24 27.67 28.60 29.02 29.47 30.26 31.29 30.88 29.61 28.91 28.26 30.02 30.30 31.00 31.14 31.34
24.53 24.91 24.88 24.78 25.05 25.27 25.60 26.42 27.32 27.18 27.75 27.85 29.99 30.87 30.49 29.15 27.92 28.37 27.70 27.24 28.13 28.65
23.51 23.50 23.56 23.98 23.95 24.05 23.87 24.82 24.94 25.37 26.00 26.22 27.33 29.70 29.49 28.79 26.76 26.35 26.49 26.00 26.09 26.34
22.36 22.13 22.77 22.91 22.59 22.45 22.98 23.22 23.62 23.92 24.67 25.14 26.15 28.25 28.34 27.45 25.76 24.97 25.11 25.00 24.97 24.82
21.17 20.88 21.51 21.63 21.26 21.69 21.88 22.36 22.55 23.69 23.61 23.66 24.37 26.65 27.02 25.45 23.61 23.03 22.55 23.64 23.94 23.82
19.81 19.45 19.87 19.88 20.16 21.58 21.51 22.04 22.50 22.88 23.31 23.87 23.13 24.24 25.31 24.46 21.65 20.21 19.94 20.95 22.20 23.23
17.35 17.41 18.99 18.57 19.14 20.03 19.87 20.37 21.04 21.23 21.85 22.53 21.50 20.33 23.59 23.64 20.69 19.54 18.77 18.68 19.00 18.83

GFSNIL_sfc_wetblb_171.txt.gz
Wetbulb
36.63 36.72 36.92 36.33 36.36 36.21 36.27 36.87 37.42 37.78 38.54 39.42 40.77 40.89 42.07 43.52 42.71 43.13 43.62 42.53 43.04 45.13
33.88 34.03 33.86 34.14 34.56 34.39 34.92 36.56 36.00 36.36 36.83 37.90 38.90 39.58 40.87 39.81 39.07 40.14 40.11 40.09 40.06 40.86
32.45 32.77 32.79 32.70 32.09 32.43 33.01 33.92 34.07 34.58 35.59 36.25 37.27 37.29 37.27 37.33 37.23 37.04 37.57 37.98 37.57 38.06
30.83 31.08 31.20 30.62 30.65 30.88 31.63 31.89 32.35 33.30 34.14 34.52 34.62 34.59 34.25 34.52 34.74 34.67 35.26 36.09 36.32 36.35
29.51 29.26 28.71 28.51 28.85 29.75 29.38 30.55 30.90 31.82 32.43 33.09 32.62 32.75 31.99 30.99 31.37 31.52 32.38 34.04 34.26 33.92
27.26 27.17 26.92 27.05 27.63 28.26 28.30 28.64 29.59 30.49 30.61 31.45 31.06 30.35 30.20 29.64 29.54 30.41 31.88 32.37 30.88 30.39
25.63 25.97 25.74 26.37 26.60 27.01 27.26 27.31 28.07 28.92 29.19 30.31 29.99 29.53 28.89 28.20 28.12 29.24 29.82 30.27 29.65 28.86
25.60 25.33 25.25 25.32 25.60 26.00 26.29 26.69 27.28 27.21 27.67 28.49 29.20 29.58 28.05 27.31 27.30 26.76 27.00 27.69 27.84 27.84
24.67 24.80 24.83 24.82 25.08 25.26 25.18 25.34 25.71 25.60 25.84 25.78 28.74 30.02 29.72 27.80 25.96 26.06 26.03 24.91 25.48 26.18
23.77 23.53 23.82 23.99 23.90 23.91 23.43 24.18 23.94 24.09 24.85 24.74 26.20 28.99 28.60 26.85 25.32 24.63 24.25 23.94 23.98 23.85
22.79 22.50 23.24 23.01 22.52 21.92 22.54 22.56 22.75 23.21 24.08 24.19 25.32 27.16 27.35 25.41 23.46 23.21 22.50 22.68 22.98 22.59
21.94 21.79 22.20 21.47 21.47 21.32 21.59 22.19 22.08 23.30 23.25 23.18 23.67 25.50 25.93 23.88 21.79 21.44 20.91 21.59 21.64 21.47
21.48 21.12 20.46 20.45 20.43 21.35 21.07 21.66 22.32 22.64 22.28 23.22 20.39 23.31 24.27 23.44 20.81 19.61 19.09 19.56 20.44 21.38
18.62 19.05 19.42 18.90 19.78 19.93 20.15 20.21 20.70 20.81 21.27 21.42 19.93 19.43 22.24 22.62 19.78 19.70 18.05 17.60 17.82 18.33

GFSNIL_sfc_wetblb_174.txt.gz
Wetbulb
36.24 36.00 35.46 34.72 34.37 34.13 34.50 34.62 35.44 36.03 36.92 37.75 38.93 40.11 40.22 39.46 40.18 39.70 39.54 38.71 40.14 40.44
33.47 33.66 32.96 32.98 33.31 32.80 33.39 35.34 34.31 35.15 35.59 36.60 37.08 37.43 37.64 36.83 36.80 37.40 37.61 37.38 37.78 38.35
31.87 32.02 31.71 31.61 31.07 31.36 31.87 32.66 32.98 33.70 34.35 34.65 34.47 34.68 35.12 34.61 35.24 35.20 35.76 36.32 35.75 36.12
30.16 30.29 30.21 29.59 29.67 29.92 30.54 30.94 31.57 32.52 33.40 32.67 32.44 32.23 31.56 32.02 31.91 32.44 33.41 34.11 33.16 32.44
29.05 28.59 27.87 27.70 28.14 29.01 28.75 30.00 30.45 31.28 31.95 31.11 30.55 30.11 29.62 29.39 29.95 30.48 31.00 30.37 29.80 29.14
27.11 26.75 26.31 26.48 27.17 27.78 27.94 28.33 29.29 30.00 30.18 29.46 29.13 28.38 28.42 28.19 28.57 29.08 28.88 28.54 27.79 28.19
25.53 25.55 25.40 25.91 26.19 26.41 26.96 27.15 27.51 28.50 29.01 28.83 28.43 27.74 27.48 27.28 26.84 26.74 27.40 27.67 27.10 27.23
25.47 24.92 24.94 25.17 25.54 25.95 26.22 26.13 26.50 26.79 27.54 27.76 28.24 28.55 26.86 26.91 26.14 26.03 25.23 26.14 25.86 27.06
24.91 24.82 25.01 24.89 25.12 25.34 25.35 25.06 25.41 25.44 25.91 26.25 28.26 29.62 28.59 26.20 25.19 25.07 23.96 23.51 24.02 24.77
24.28 24.00 24.20 24.10 24.01 24.08 23.50 24.05 23.87 24.32 24.66 25.23 26.23 28.72 27.21 25.90 24.24 23.41 22.14 22.29 22.49 23.07
23.52 23.19 23.56 23.40 22.99 22.48 22.90 22.76 22.92 23.42 23.84 24.11 25.47 27.09 26.43 24.25 22.97 22.12 21.70 21.44 21.50 21.10
22.74 22.50 22.28 21.88 21.32 21.41 21.78 22.30 22.30 23.77 22.93 22.89 23.29 25.18 25.67 22.66 21.76 21.30 20.52 20.92 21.09 20.22
22.47 21.94 21.32 21.26 21.37 22.28 22.47 22.60 23.37 22.79 22.89 22.09 20.34 23.53 24.25 22.18 21.25 19.94 19.34 19.58 20.38 21.03
19.73 20.03 20.37 20.72 20.83 20.91 21.49 21.61 21.87 21.30 21.44 20.33 19.73 20.06 22.44 21.81 20.03 19.57 18.67 18.11 17.16 18.15